sat.trackr.live / text

‹ back to catalog

USA 170

NORAD 27875 · 2003-040A

PAYLOAD ACTIVE UNKNOWN

§ Identity

Operator
Country
US
Launch date
2003-08-29
Launch site
AFETR
Launch vehicle
Mass (kg)
RCS (m²)

Purposes: comms

External: N2YO · Heavens-Above · Gunter

§ Orbital elements

Epoch: 2026-05-23T22:46:03.243360Z

Period
1,436.06 min
Inclination
10.4521°
Eccentricity
0.0001818
Mean motion
1.00274024 rev/d
Perigee alt
35,778.3 km
Apogee alt
35,793.6 km
Semi-major
42,164.1 km
B*
0.0000e+0
RAAN
48.1798°
Arg perigee
3.4668°
Mean anomaly
195.5313°
Rev number
3,275

§ Raw data

USA 1701 27875U 03040A   26143.94864865  .00000119  00000+0  00000+0 0  99912 27875  10.4521  48.1798 0001818   3.4668 195.5313  1.00274024 32750

JSON: /api/v1/satellites/27875 · /tle

For live sub-satellite position, see the globe view (requires WebGL).

§ Visibility from observer

Set your observer location to see the next 7 days of passes ≥ 10°. The values pass through the URL so the page stays shareable.

No JS? Fill the form by hand. The geolocation button needs JavaScript.